Location: Maiden_LMO
(35.5760°N, 81.2120°W)
Time: 03:24:37
(UTC-05:00)

Daily predictions for brighter satellites

Satellite Brightness Start Highest point End
(mag) Time Altitude Azimuth Time Altitude Azimuth Time Altitude Azimuth
CZ-3 R/B 4.4 02:20:25 10° W 03:29:36 51° S 03:39:29 10° SE
SL-16 R/B 4.4 04:19:30 18° SE 04:19:30 18° SE 04:20:59 10° SE
USA 229 DEB 4.3 04:53:48 47° S 04:53:48 47° S 04:58:56 10° SSE
USA 229 4.2 04:53:50 48° S 04:53:50 48° S 04:59:02 10° SSE
Gbstr 26 Del rocket 4.3 05:00:52 45° SE 05:01:19 46° SE 05:07:01 10° ENE
Thor Agena Rocket 3.7 05:03:17 10° SSE 05:07:55 69° SSE 05:07:55 69° SSE
Cosmos 2263 Rocket 4.2 05:04:30 10° SSE 05:09:09 27° ESE 05:13:50 10° NE
CZ-3 Stage 3 2.6 05:12:39 45° SSE 05:12:39 45° SSE 05:21:22 10° ESE
Cosmos 1603 4.0 05:17:39 32° N 05:20:12 63° ENE 05:25:49 10° SSE
Cosmos 1340 Rocket 3.5 05:21:34 52° E 05:21:34 52° E 05:25:23 10° SSE
DMSP 5D-2 F-14 4.5 05:19:46 10° N 05:25:12 81° WNW 05:30:37 10° SSW
COSMO-SKYMED 1 3.1 05:26:39 10° SSE 05:30:53 56° ENE 05:33:54 19° N
Atlas 2A Centaur Rocket 3.9 05:30:53 21° SSW 05:31:20 21° S 05:33:46 10° SE
NOAA 6 3.9 05:27:48 10° N 05:33:01 82° WNW 05:38:11 10° SSW
OAO 2 Rocket 3.7 05:34:14 44° SSW 05:34:24 44° SSW 05:39:04 10° SE
Cosmos 1777 Rocket 4.4 05:37:20 44° NNW 05:37:20 44° NNW 05:41:21 10° N
Meteor 2-1 Rocket 4.1 05:32:35 10° S 05:38:12 90° E 05:43:59 10° N
Cosmos 2058 2.8 05:38:10 57° N 05:38:59 89° E 05:43:08 10° S
Genesis I 3.7 05:41:35 47° SSW 05:41:35 47° SSW 05:44:36 10° SSE
GPS 2-05 Rocket1 3.4 05:42:13 51° ESE 05:42:13 51° ESE 05:44:46 10° ESE
NOSS 3-1 (C) 4.0 05:39:11 27° NW 05:43:51 71° WSW 05:52:15 10° SSE
Sich 1 4.4 05:45:46 10° N 05:49:51 39° E 05:53:52 10° SSE
OPS 8737 4.2 05:52:52 47° SSW 05:53:44 86° ESE 05:56:53 10° NNE
Cosmos 292 Rocket 3.8 05:49:58 16° NNW 05:53:47 80° ENE 05:58:35 10° SSE
Tiangong 2 2.2 05:59:08 31° N 05:59:08 31° N 06:01:33 10° NE
SL-16 R/B 3.9 06:01:28 15° SW 06:01:28 15° SW 06:02:59 10° SW
Cosmos 1356 Rocket 3.4 05:55:13 10° N 05:59:22 81° E 06:03:35 10° S
Cosmos 1633 Rocket 4.2 05:55:13 10° N 05:59:23 44° E 06:03:32 10° SSE
PSLV R/B 4.4 05:59:57 30° N 06:00:14 31° N 06:03:19 10° ENE
SKYMED 3 4.5 05:56:38 10° S 06:00:54 63° W 06:04:18 16° NNW
BREEZE-M DEB (TANK) 4.1 05:52:19 20° WNW 06:01:06 52° WSW 06:05:18 10° SSE
Cosmos 1626 2.2 06:00:09 10° N 06:03:54 76° E 06:07:36 10° S
SeaSat 1 4.1 06:07:06 10° N 06:09:00 16° NNW 06:09:00 16° NNW
Meteor 1-28 Rocket 3.1 06:09:21 10° S 06:13:05 68° W 06:16:49 10° NNW
Ariane Rocket 2.9 06:08:52 10° N 06:13:57 72° WNW 06:19:01 10° SSW
Cosmos 2221 3.2 06:12:00 10° SW 06:15:50 31° WNW 06:19:41 10° NNW
SKYMED 2 4.1 06:14:58 10° SSW 06:18:59 37° W 06:22:33 13° NNW
Cosmos 923 Rocket 4.2 06:15:14 12° NNW 06:19:59 50° WSW 06:25:03 10° S
SL-8 R/B 3.7 06:17:14 23° WNW 06:20:12 72° SW 06:24:57 10° SE
Nadezhda 4 Rocket 4.1 06:15:01 10° N 06:21:22 81° E 06:27:37 10° S
H-2A R/B 2.6 06:20:50 11° SSW 06:21:40 13° S 06:22:41 10° SSE
Cosmos 2034 Rocket 4.0 06:15:56 10° SSW 06:21:59 58° W 06:28:11 10° N
DELTA 2 R/B (1) 3.8 06:18:45 22° WNW 06:22:15 57° N 06:27:44 10° ENE
Cosmos 1898 Rocket 3.5 06:19:50 10° SSW 06:25:05 86° ESE 06:30:24 10° NNE
YAOGAN 1 4.1 06:21:12 10° NNE 06:25:16 39° E 06:29:19 10° SSE
Cosmos 1680 Rocket 3.6 06:21:33 10° NNW 06:26:46 58° WSW 06:31:58 10° S
CZ-4 R/B 1.9 06:22:53 10° NNE 06:26:59 64° E 06:31:06 10° S
Cosmos 1703 3.8 06:25:16 10° NNW 06:28:51 35° W 06:32:28 10° SSW
SJ-12 4.2 06:25:47 10° NNE 06:29:50 71° E 06:33:53 10° S
Cosmos 2344 3.6 06:24:27 10° SW 06:32:06 69° NW 06:40:29 10° NNE
PAYLOAD A 3.8 06:30:11 10° N 06:35:05 72° WNW 06:39:48 10° SSW
Cosmos 1666 Rocket 3.7 06:30:46 10° NNW 06:35:07 52° W 06:39:27 10° S
IDEFIX/ARIANE 42P 2.8 06:30:26 10° NNE 06:35:44 76° ESE 06:40:59 10° S
Cosmos 1943 3.3 06:32:19 10° NNW 06:37:56 61° WSW 06:43:31 10° S
Cosmos 2150 Rocket 4.1 06:33:52 10° SSW 06:39:18 85° WNW 06:44:42 10° NNE
Cosmos 1092 Rocket 4.1 06:36:53 10° N 06:43:11 86° E 06:49:22 10° S
Cosmos 1184 Rocket 3.9 06:43:51 10° NW 06:46:35 24° W 06:49:19 10° SSW
Cosmos 1933 Rocket 3.9 06:42:16 10° N 06:46:43 71° E 06:51:05 10° SSE
Gbstr 26 Del rocket 4.4 06:43:35 10° W 06:48:37 39° NNW 06:54:46 10° NE
CSL-04 Debris 4.4 06:44:03 10° N 06:49:17 48° WNW 06:54:29 10° SW
Aureole 3 4.4 06:42:58 10° N 06:49:21 80° E 06:54:17 10° S
Cosmos 1937 Rocket 3.4 06:47:05 10° SSW 06:52:13 74° WNW 06:57:22 10° NNE
Cosmos 2263 Rocket 2.7 06:47:39 10° SW 06:52:51 37° WNW 06:58:07 10° N
Cosmos 1844 Rocket 4.0 06:50:04 10° S 06:55:24 46° ESE 07:00:48 10° NE
Cosmos 1484 Rocket 3.8 06:53:15 10° NNE 06:57:10 53° E 07:01:01 10° S
NOSS 3-3 (A) 4.0 06:52:07 10° SW 06:58:14 74° WNW 07:04:49 10° NNE
NOSS 3-3 (C) 4.0 06:52:14 10° SW 06:58:21 74° WNW 07:04:57 10° NNE
Coronas F rocket 2.8 06:57:19 10° NW 06:58:51 15° W 07:00:23 10° SW
Cosmos 1726 2.1 06:55:18 10° S 06:58:58 88° W 07:02:41 10° N
Cosmos 389 Rocket 3.9 06:56:32 10° SW 06:59:17 20° WNW 07:02:03 10° NNW
Alouette 2 Rocket 4.4 06:56:06 10° N 06:59:42 51° E 07:04:16 10° SSE
MSX 4.0 06:54:59 10° NNE 07:00:47 81° ESE 07:06:34 10° S
MOS 1 4.3 06:57:57 10° NNE 07:03:42 85° WNW 07:09:24 10° SSW
NOSS 2-1 (D) 4.5 07:01:02 10° SSW 07:04:41 48° ESE 07:08:34 10° NE
ATLAS 2AS CENTAUR R/B 3.1 06:57:15 10° NNW 07:05:18 89° SW 07:12:40 10° SSE
